period_start,C,m1,H,J0,J1,J2,J3,J4,J5,JA,JB,JC,JD,JJ,JK,JN,#
2018-03-28 00:00:17,0.12,10.05,0.00,20.06,23.38,26.55,14.10,51.56,1010.42,2038.32,1147.36,1521.93,1706.30,600.23,598.57,54.09,0000 0000 0000 0000 000000
2018-03-28 00:05:19,0.16,10.06,0.00,20.09,23.41,26.56,14.04,51.72,1010.34,2038.12,1146.53,1521.11,1705.56,600.28,598.43,54.14,0000 0000 0000 0000 000000
2018-03-28 00:10:20,0.12,10.07,0.00,20.12,23.42,26.59,14.05,51.67,1010.28,2038.05,1145.74,1520.53,1704.89,599.87,598.06,54.19,0000 0000 0000 0000 000000
2018-03-28 00:15:21,0.11,10.08,0.00,20.14,23.45,26.61,14.06,51.63,1010.27,2038.04,1144.93,1519.99,1704.06,599.89,598.06,54.24,0000 0000 0000 0000 000000
2018-03-28 00:20:22,0.20,10.08,0.00,20.17,23.47,26.62,14.01,51.75,1010.27,2038.01,1144.07,1519.23,1703.24,599.43,597.47,54.29,0000 0000 0000 0000 000000
2018-03-28 00:25:23,0.18,10.09,0.00,20.19,23.49,26.65,14.11,51.92,1010.27,2038.00,1143.30,1518.65,1702.49,599.93,597.91,54.34,0000 0000 0000 0000 000000
2018-03-28 00:30:25,0.14,10.10,0.00,20.24,23.52,26.66,14.02,51.79,1010.27,2038.00,1142.42,1517.99,1701.72,599.84,597.67,54.39,0000 0000 0000 0000 000000
2018-03-28 00:35:26,0.17,10.11,0.00,20.28,23.54,26.70,14.04,51.99,1010.28,2038.00,1141.59,1517.20,1700.95,600.04,597.73,54.44,0000 0000 0000 0000 000000
2018-03-28 00:40:27,0.16,10.12,0.00,20.32,23.57,26.69,14.03,52.15,1010.29,2038.00,1140.76,1516.67,1700.09,599.82,597.61,54.49,0000 0000 0000 0000 000000
2018-03-28 00:45:28,0.12,10.12,0.00,20.35,23.59,26.73,14.08,52.28,1010.26,2037.98,1139.92,1515.99,1699.36,599.96,597.55,54.54,0000 0000 0000 0000 000000
2018-03-28 00:50:29,0.19,10.13,0.00,20.41,23.62,26.75,14.05,52.15,1010.02,2037.97,1139.03,1515.21,1698.64,600.31,597.53,54.60,0000 0000 0000 0000 000000
2018-03-28 00:55:31,0.17,10.14,0.00,20.44,23.65,26.77,14.08,52.32,1009.80,2037.93,1138.08,1514.60,1697.76,600.37,597.46,54.65,0000 0000 0000 0000 000000
2018-03-28 01:00:32,0.11,10.15,0.00,20.48,23.67,26.81,14.02,52.21,1009.78,2037.77,1137.17,1513.95,1696.97,599.72,596.81,54.70,0000 0000 0000 0000 000000
2018-03-28 01:05:33,0.14,10.16,0.00,20.53,23.70,26.83,14.02,52.02,1009.79,2037.29,1136.20,1513.10,1696.12,599.84,596.88,54.75,0000 0000 0000 0000 000000
2018-03-28 01:10:35,0.19,10.16,0.00,20.56,23.73,26.86,14.03,52.02,1009.78,2037.13,1135.29,1512.49,1695.32,599.93,596.92,54.80,0000 0000 0000 0000 000000
2018-03-28 01:15:36,0.16,10.17,0.00,20.61,23.76,26.90,14.04,51.96,1009.78,2037.08,1134.30,1511.80,1694.52,600.25,597.17,54.85,0000 0000 0000 0000 000000
2018-03-28 01:20:37,0.18,10.18,0.00,20.65,23.79,26.94,14.08,52.17,1009.43,2037.02,1133.34,1511.02,1693.62,600.07,596.63,54.90,0000 0000 0000 0000 000000
2018-03-28 01:25:38,0.19,10.19,0.00,20.70,23.83,26.96,14.02,52.37,1008.87,2037.01,1132.48,1510.17,1692.68,599.80,596.03,54.95,0000 0000 0000 0000 000000
2018-03-28 01:30:39,0.20,10.20,0.00,20.74,23.86,26.99,14.05,52.43,1008.62,2037.00,1131.42,1509.42,1691.78,600.18,595.92,55.00,0000 0000 0000 0000 000000
2018-03-28 01:35:41,0.22,10.21,0.00,20.76,23.89,27.01,14.01,52.45,1008.48,2037.00,1130.15,1508.54,1690.75,600.03,595.77,55.05,0000 0000 0000 0000 000000
2018-03-28 01:40:42,0.15,10.22,0.00,20.74,23.91,27.06,13.95,52.53,1008.49,2036.99,1129.22,1507.82,1689.85,599.44,595.25,55.10,0000 0000 0000 0000 000000
2018-03-28 01:45:43,0.20,10.23,0.00,20.73,23.93,27.08,14.00,52.99,1008.34,2036.99,1128.17,1506.98,1688.94,599.82,595.57,55.15,0000 0000 0000 0000 000000
2018-03-28 01:50:44,0.20,10.24,0.00,20.67,23.95,27.14,14.01,53.35,1008.33,2036.98,1127.13,1506.11,1688.06,599.81,595.73,55.20,0000 0000 0000 0000 000000
2018-03-28 01:55:46,0.21,10.25,0.00,20.62,23.97,27.16,14.07,53.13,1008.33,2036.98,1126.15,1505.43,1687.14,600.11,595.89,55.25,0000 0000 0000 0000 000000
2018-03-28 02:00:47,0.21,10.26,0.00,20.57,23.97,27.19,13.98,52.98,1008.59,2036.97,1125.02,1504.62,1686.18,599.76,595.91,55.30,0000 0000 0000 0000 000000
2018-03-28 02:05:48,0.14,10.27,0.00,20.51,23.98,27.19,14.05,52.95,1008.80,2036.91,1124.07,1503.94,1685.25,599.81,596.30,55.35,0000 0000 0000 0000 000000
2018-03-28 02:10:49,0.21,10.28,0.00,20.45,23.99,27.20,14.05,52.94,1008.81,2036.88,1123.19,1503.09,1684.44,599.81,596.40,55.40,0000 0000 0000 0000 000000
2018-03-28 02:15:50,0.16,10.29,0.00,20.41,23.99,27.19,14.03,52.86,1008.81,2036.75,1122.35,1502.32,1683.62,600.20,596.67,55.45,0000 0000 0000 0000 000000
2018-03-28 02:20:52,0.16,10.30,0.00,20.38,23.99,27.17,14.09,52.96,1008.81,2036.55,1121.45,1501.58,1682.72,600.22,596.97,55.50,0000 0000 0000 0000 000000
2018-03-28 02:25:53,0.06,10.30,0.00,20.34,23.99,27.16,14.15,52.96,1008.80,2036.40,1120.85,1500.98,1681.95,600.26,596.94,55.56,0000 0000 0000 0000 000000
2018-03-28 02:30:54,0.18,10.31,0.00,20.29,23.98,27.14,14.15,52.98,1008.80,2036.33,1120.04,1500.17,1681.10,600.14,597.10,55.61,0000 0000 0000 0000 000000
2018-03-28 02:35:56,0.22,10.32,0.00,20.27,23.97,27.13,14.07,52.81,1008.80,2036.53,1119.22,1499.63,1680.28,599.83,596.88,55.66,0000 0000 0000 0000 000000
2018-03-28 02:40:57,0.21,10.33,0.00,20.23,23.97,27.10,14.00,52.65,1008.82,2036.78,1118.22,1499.01,1679.50,599.79,596.89,55.71,0000 0000 0000 0000 000000
2018-03-28 02:45:58,0.17,10.34,0.00,20.21,23.95,27.06,13.97,52.52,1009.18,2036.85,1117.48,1498.33,1678.82,599.98,597.12,55.76,0000 0000 0000 0000 000000
2018-03-28 02:50:59,0.13,10.35,0.00,20.18,23.95,27.05,14.10,52.39,1009.32,2036.89,1116.71,1497.87,1678.05,600.23,597.70,55.81,0000 0000 0000 0000 000000
2018-03-28 02:56:01,0.18,10.36,0.00,20.17,23.93,27.02,14.07,52.39,1009.58,2036.94,1115.89,1497.07,1677.32,600.01,597.56,55.86,0000 0000 0000 0000 000000
2018-03-28 03:01:01,0.18,10.37,0.00,20.17,23.92,27.04,14.17,52.30,1009.77,2036.96,1115.05,1496.49,1676.55,600.18,597.81,55.91,0000 0000 0000 0000 000000
2018-03-28 03:06:03,0.12,10.37,0.00,20.18,23.92,27.06,14.10,52.27,1009.78,2036.97,1114.19,1495.99,1675.92,599.93,597.63,55.96,0000 0000 0000 0000 000000
2018-03-28 03:11:04,0.18,10.38,0.00,20.21,23.92,27.07,14.07,52.32,1009.78,2036.98,1113.61,1495.29,1675.09,600.23,597.73,56.01,0000 0000 0000 0000 000000
2018-03-28 03:16:05,0.11,10.39,0.00,20.23,23.90,27.06,14.19,52.51,1009.78,2036.97,1112.87,1494.81,1674.33,600.09,597.53,56.06,0000 0000 0000 0000 000000
2018-03-28 03:21:06,0.17,10.40,0.00,20.27,23.90,27.06,14.08,52.30,1009.78,2036.97,1112.01,1494.03,1673.60,599.90,597.40,56.11,0000 0000 0000 0000 000000
2018-03-28 03:26:08,0.18,10.41,0.00,20.30,23.90,27.05,14.09,52.42,1009.77,2036.97,1111.11,1493.36,1672.87,599.92,597.29,56.16,0000 0000 0000 0000 000000
2018-03-28 03:31:09,0.15,10.42,0.00,20.33,23.90,27.01,14.11,52.31,1009.55,2036.98,1110.31,1492.84,1672.04,600.14,597.42,56.21,0000 0000 0000 0000 000000
2018-03-28 03:36:10,0.19,10.42,0.00,20.37,23.90,27.03,14.12,52.38,1009.35,2036.97,1109.47,1492.04,1671.18,600.13,597.19,56.26,0000 0000 0000 0000 000000
2018-03-28 03:41:11,0.17,10.43,0.00,20.39,23.91,27.01,14.08,52.23,1009.38,2036.98,1108.70,1491.49,1670.52,600.03,597.09,56.31,0000 0000 0000 0000 000000
2018-03-28 03:46:13,0.10,10.44,0.00,20.42,23.92,27.03,14.04,52.12,1009.58,2036.98,1107.91,1490.93,1669.80,599.94,597.10,56.36,0000 0000 0000 0000 000000
2018-03-28 03:51:14,0.18,10.45,0.00,20.47,23.92,27.05,14.07,52.23,1009.49,2036.97,1107.05,1490.09,1668.99,599.90,596.85,56.41,0000 0000 0000 0000 000000
2018-03-28 03:56:16,0.20,10.46,0.00,20.51,23.93,27.04,14.06,52.28,1009.37,2036.96,1106.14,1489.53,1668.12,599.84,596.79,56.47,0000 0000 0000 0000 000000
2018-03-28 04:01:17,0.17,10.47,0.00,20.54,23.95,27.06,14.06,52.18,1009.39,2036.96,1105.33,1488.83,1667.29,599.94,596.74,56.52,0000 0000 0000 0000 000000
2018-03-28 04:06:18,0.17,10.48,0.00,20.58,23.96,27.05,14.01,52.23,1009.30,2036.91,1104.47,1488.05,1666.44,599.92,596.58,56.57,0000 0000 0000 0000 000000
2018-03-28 04:11:19,0.16,10.48,0.00,20.61,23.97,27.07,14.00,52.33,1009.15,2036.79,1103.63,1487.36,1665.61,600.12,596.59,56.62,0000 0000 0000 0000 000000
2018-03-28 04:16:20,0.14,10.49,0.00,20.63,23.99,27.09,14.05,52.52,1008.82,2036.54,1102.70,1486.66,1664.81,600.06,596.39,56.67,0000 0000 0000 0000 000000
2018-03-28 04:21:21,0.10,10.50,0.00,20.68,24.00,27.10,14.01,52.40,1008.83,2036.28,1101.81,1485.97,1663.93,600.10,596.22,56.72,0000 0000 0000 0000 000000
2018-03-28 04:26:23,0.17,10.51,0.00,20.71,24.02,27.11,14.05,52.67,1008.85,2036.20,1101.03,1485.18,1663.07,600.05,596.15,56.77,0000 0000 0000 0000 000000
2018-03-28 04:31:24,0.18,10.51,0.00,20.74,24.04,27.13,14.00,53.00,1008.78,2036.11,1100.21,1484.59,1662.39,600.13,596.08,56.82,0000 0000 0000 0000 000000
2018-03-28 04:36:25,0.16,10.52,0.00,20.75,24.06,27.17,14.09,53.13,1008.68,2036.03,1099.20,1483.93,1661.53,599.94,595.88,56.87,0000 0000 0000 0000 000000
2018-03-28 04:41:27,0.18,10.53,0.00,20.77,24.07,27.19,14.00,52.88,1008.76,2036.01,1098.20,1483.10,1660.75,600.16,596.07,56.92,0000 0000 0000 0000 000000
2018-03-28 04:46:28,0.19,10.54,0.00,20.79,24.09,27.20,14.15,53.04,1008.79,2036.03,1097.26,1482.44,1659.97,600.41,596.38,56.97,0000 0000 0000 0000 000000
2018-03-28 04:51:29,0.16,10.55,0.00,20.81,24.11,27.21,14.00,53.05,1008.70,2036.02,1096.36,1481.85,1659.10,599.71,595.53,57.02,0000 0000 0000 0000 000000
2018-03-28 04:56:35,0.17,10.56,0.00,20.83,24.12,27.26,14.00,52.92,1008.74,2036.00,1095.67,1481.05,1658.31,600.21,595.91,57.07,0000 0000 0000 0000 000000
2018-03-28 05:01:37,0.17,10.57,0.00,20.85,24.14,27.27,13.97,53.04,1008.80,2036.00,1094.76,1480.31,1657.48,599.92,595.67,57.12,0000 0000 0000 0000 000000
2018-03-28 05:06:38,0.26,10.58,0.00,20.88,24.16,27.28,14.06,53.06,1008.77,2036.00,1093.66,1479.56,1656.53,600.22,595.88,57.17,0000 0000 0000 0000 000000
2018-03-28 05:11:39,0.15,10.59,0.00,20.92,24.17,27.28,14.02,52.97,1008.81,2036.00,1092.78,1478.76,1655.60,599.99,595.79,57.22,0000 0000 0000 0000 000000
2018-03-28 05:16:41,0.18,10.60,0.00,20.95,24.20,27.30,14.07,53.02,1008.91,2036.00,1091.80,1477.97,1654.72,600.04,595.61,57.27,0000 0000 0000 0000 000000
2018-03-28 05:21:42,0.18,10.61,0.00,20.97,24.22,27.31,14.07,52.73,1008.95,2036.00,1090.95,1477.13,1653.89,599.81,595.50,57.32,0000 0000 0000 0000 000000
2018-03-28 05:26:43,0.19,10.62,0.00,20.99,24.24,27.33,14.00,52.86,1008.82,2036.00,1090.12,1476.51,1653.03,600.00,595.50,57.37,0000 0000 0000 0000 000000
2018-03-28 05:31:45,0.15,10.63,0.00,21.03,24.26,27.33,14.00,52.82,1008.80,2035.97,1089.39,1475.92,1652.13,599.99,595.42,57.43,0000 0000 0000 0000 000000
2018-03-28 05:36:46,0.19,10.64,0.00,21.06,24.28,27.35,14.00,52.77,1008.80,2035.90,1088.49,1475.09,1651.27,599.80,595.06,57.48,0000 0000 0000 0000 000000
2018-03-28 05:41:47,0.21,10.65,0.00,21.09,24.30,27.35,14.02,52.88,1008.80,2035.84,1087.22,1474.27,1650.49,600.30,595.63,57.53,0000 0000 0000 0000 000000
2018-03-28 05:46:49,0.03,10.65,0.00,21.12,24.32,27.37,14.02,52.91,1008.94,2035.54,1086.93,1473.79,1649.70,600.08,595.50,57.58,0000 0000 0000 0000 000000
2018-03-28 05:51:50,0.11,10.66,0.00,21.15,24.35,27.38,14.04,52.81,1009.26,2035.10,1086.20,1473.04,1648.91,599.82,595.21,57.63,0000 0000 0000 0000 000000
2018-03-28 05:56:52,0.20,10.67,0.00,21.18,24.37,27.41,14.04,53.13,1009.29,2035.03,1085.34,1472.30,1648.05,599.93,595.39,57.68,0000 0000 0000 0000 000000
2018-03-28 06:01:53,0.16,10.67,0.00,21.22,24.40,27.45,14.13,53.10,1009.30,2035.00,1084.50,1471.84,1647.18,600.33,595.61,57.73,0000 0000 0000 0000 000000
2018-03-28 06:06:54,0.15,10.68,0.00,21.28,24.42,27.47,14.02,52.83,1009.31,2035.00,1083.81,1471.05,1646.37,599.91,595.16,57.78,0000 0000 0000 0000 000000
2018-03-28 06:11:56,0.17,10.69,0.00,21.33,24.44,27.47,13.98,52.97,1009.29,2035.00,1082.98,1470.44,1645.61,600.21,595.34,57.83,0000 0000 0000 0000 000000
2018-03-28 06:16:57,0.21,10.70,0.00,21.34,24.47,27.48,13.94,52.87,1009.22,2035.00,1081.88,1469.75,1644.81,599.98,595.00,57.88,0000 0000 0000 0000 000000
2018-03-28 06:21:58,0.15,10.71,0.00,21.37,24.50,27.52,14.00,52.92,1008.93,2034.98,1081.03,1469.01,1643.99,600.27,595.08,57.93,0000 0000 0000 0000 000000
2018-03-28 06:26:59,0.20,10.72,0.00,21.40,24.52,27.54,13.91,52.75,1009.00,2034.96,1080.19,1468.26,1643.13,599.93,594.78,57.98,0000 0000 0000 0000 000000
2018-03-28 06:32:01,0.09,10.73,0.00,21.45,24.55,27.57,13.95,52.57,1009.08,2034.79,1079.68,1467.77,1642.23,599.94,594.58,58.03,0000 0000 0000 0000 000000
2018-03-28 06:37:02,0.11,10.73,0.00,21.48,24.57,27.62,13.99,52.44,1009.28,2034.26,1078.76,1467.01,1641.43,599.97,594.69,58.08,0000 0000 0000 0000 000000
2018-03-28 06:42:04,0.12,10.74,0.00,21.51,24.60,27.62,13.97,52.60,1009.29,2034.04,1078.02,1466.19,1640.74,600.13,594.82,58.13,0000 0000 0000 0000 000000
2018-03-28 06:47:05,0.17,10.75,0.00,21.55,24.63,27.67,13.96,52.65,1009.29,2034.00,1077.18,1465.71,1639.95,600.23,595.01,58.18,0000 0000 0000 0000 000000
2018-03-28 06:52:06,0.17,10.75,0.00,21.59,24.66,27.69,13.99,52.58,1009.29,2034.00,1076.44,1465.01,1639.10,600.19,594.80,58.23,0000 0000 0000 0000 000000
2018-03-28 06:57:08,0.21,10.76,0.00,21.62,24.69,27.73,13.95,52.48,1009.27,2034.00,1075.58,1464.20,1638.22,600.01,594.59,58.28,0000 0000 0000 0000 000000
2018-03-28 07:02:09,0.14,10.77,0.00,21.65,24.71,27.76,13.98,52.51,1009.07,2033.99,1074.82,1463.69,1637.51,599.93,594.25,58.34,0000 0000 0000 0000 000000
2018-03-28 07:07:10,0.14,10.78,0.00,21.68,24.75,27.80,13.87,52.38,1008.93,2033.95,1073.95,1462.93,1636.74,599.65,593.80,58.39,0000 0000 0000 0000 000000
2018-03-28 07:12:11,0.19,10.79,0.00,21.73,24.78,27.81,14.01,52.35,1008.94,2033.88,1073.06,1462.09,1635.93,599.95,594.04,58.44,0000 0000 0000 0000 000000
2018-03-28 07:17:13,0.11,10.80,0.00,21.77,24.81,27.85,13.95,52.59,1008.87,2033.43,1072.28,1461.49,1635.09,600.01,593.97,58.49,0000 0000 0000 0000 000000
2018-03-28 07:22:15,0.10,10.80,0.00,21.83,24.85,27.89,13.97,52.48,1008.85,2033.06,1071.59,1460.92,1634.25,600.30,593.97,58.54,0000 0000 0000 0000 000000
2018-03-28 07:27:16,0.19,10.81,0.00,21.88,24.88,27.93,13.94,52.46,1008.82,2033.02,1070.75,1460.10,1633.55,599.95,593.86,58.59,0000 0000 0000 0000 000000
2018-03-28 07:32:17,0.17,10.82,0.00,21.93,24.92,27.97,13.94,52.44,1008.81,2033.00,1069.93,1459.46,1632.75,600.05,593.58,58.64,0000 0000 0000 0000 000000
2018-03-28 07:37:19,0.16,10.83,0.00,21.99,24.96,27.99,13.84,52.49,1008.82,2033.00,1069.07,1458.78,1631.97,599.64,593.14,58.69,0000 0000 0000 0000 000000
2018-03-28 07:42:20,0.18,10.84,0.00,22.04,24.98,28.02,13.95,52.47,1008.80,2032.98,1068.29,1458.04,1631.10,600.14,593.66,58.74,0000 0000 0000 0000 000000
2018-03-28 07:47:21,0.20,10.85,0.00,22.08,25.02,28.08,13.94,52.55,1008.80,2032.94,1067.49,1457.32,1630.19,599.81,593.33,58.79,0000 0000 0000 0000 000000
2018-03-28 07:52:23,0.07,10.85,0.00,22.14,25.06,28.11,13.97,52.29,1008.80,2032.68,1066.82,1456.78,1629.51,600.38,593.55,58.84,0000 0000 0000 0000 000000
2018-03-28 07:57:24,0.09,10.86,0.00,22.18,25.10,28.14,13.91,52.25,1008.80,2032.16,1066.04,1456.04,1628.75,600.21,593.24,58.89,0000 0000 0000 0000 000000
2018-03-28 08:02:25,0.18,10.87,0.00,22.24,25.14,28.17,13.90,52.30,1008.81,2032.02,1065.26,1455.41,1627.97,599.51,592.43,58.94,0000 0000 0000 0000 000000
2018-03-28 08:07:27,0.13,10.87,0.00,22.27,25.17,28.21,13.94,52.30,1008.82,2032.00,1064.70,1454.82,1627.11,600.01,593.02,58.99,0000 0000 0000 0000 000000
2018-03-28 08:12:28,0.16,10.88,0.00,22.34,25.21,28.26,13.91,52.25,1008.82,2032.00,1063.91,1454.04,1626.32,600.14,592.86,59.04,0000 0000 0000 0000 000000
2018-03-28 08:17:29,0.19,10.89,0.00,22.41,25.25,28.28,13.85,52.03,1008.81,2031.99,1063.08,1453.40,1625.66,599.85,592.49,59.09,0000 0000 0000 0000 000000
2018-03-28 08:22:30,0.12,10.90,0.00,22.47,25.29,28.31,13.88,51.96,1008.80,2031.96,1062.47,1452.90,1624.90,599.92,592.49,59.14,0000 0000 0000 0000 000000
2018-03-28 08:27:31,0.04,10.90,0.00,22.54,25.34,28.36,13.94,52.09,1008.81,2031.40,1061.83,1452.07,1624.04,600.06,592.43,59.20,0000 0000 0000 0000 000000
2018-03-28 08:32:33,0.17,10.91,0.00,22.60,25.38,28.40,13.88,52.02,1008.81,2031.05,1061.04,1451.44,1623.20,599.65,591.90,59.25,0000 0000 0000 0000 000000
2018-03-28 08:37:34,0.14,10.91,0.00,22.67,25.42,28.47,13.91,51.87,1008.81,2031.00,1060.39,1450.92,1622.46,600.23,592.39,59.30,0000 0000 0000 0000 000000
2018-03-28 08:42:35,0.16,10.92,0.00,22.71,25.46,28.54,13.90,51.78,1008.80,2031.00,1059.72,1450.11,1621.83,600.00,592.06,59.35,0000 0000 0000 0000 000000
2018-03-28 08:47:36,0.14,10.93,0.00,22.74,25.51,28.59,13.88,51.77,1008.80,2030.99,1059.01,1449.56,1621.03,599.98,592.05,59.40,0000 0000 0000 0000 000000
2018-03-28 08:52:38,0.11,10.94,0.00,22.75,25.55,28.66,13.93,51.68,1008.80,2030.72,1058.16,1448.96,1620.17,600.45,592.40,59.45,0000 0000 0000 0000 000000
2018-03-28 08:57:39,0.12,10.94,0.00,22.74,25.59,28.68,13.84,51.76,1008.80,2030.16,1057.55,1448.15,1619.52,599.50,591.60,59.50,0000 0000 0000 0000 000000
2018-03-28 09:02:41,0.09,10.95,0.00,22.74,25.63,28.76,13.86,51.67,1008.80,2030.02,1056.90,1447.75,1618.83,599.89,591.87,59.55,0000 0000 0000 0000 000000
2018-03-28 09:07:42,0.17,10.96,0.00,22.71,25.67,28.77,13.97,51.74,1008.80,2030.00,1056.08,1447.04,1618.03,600.39,592.30,59.60,0000 0000 0000 0000 000000
2018-03-28 09:12:43,0.20,10.96,0.00,22.68,25.71,28.81,13.92,51.74,1008.79,2029.98,1055.44,1446.38,1617.24,600.25,592.29,59.65,0000 0000 0000 0000 000000
2018-03-28 09:17:44,0.09,10.97,0.00,22.64,25.74,28.84,13.94,51.82,1008.77,2029.96,1054.81,1445.90,1616.64,599.95,592.13,59.70,0000 0000 0000 0000 000000
2018-03-28 09:22:45,0.10,10.98,0.00,22.64,25.78,28.88,13.92,51.65,1008.70,2029.62,1054.05,1445.10,1615.96,600.16,592.31,59.75,0000 0000 0000 0000 000000
2018-03-28 09:27:47,0.10,10.98,0.00,22.64,25.81,28.91,13.97,51.64,1008.54,2029.10,1053.40,1444.74,1615.12,599.93,591.84,59.80,0000 0000 0000 0000 000000
2018-03-28 09:32:48,0.12,10.99,0.00,22.66,25.84,28.94,13.84,51.57,1008.37,2029.02,1052.83,1444.03,1614.50,600.01,591.89,59.85,0000 0000 0000 0000 000000
2018-03-28 09:37:50,0.17,11.00,0.00,22.69,25.88,28.97,13.80,51.53,1008.40,2029.00,1052.04,1443.37,1613.86,600.02,591.86,59.90,0000 0000 0000 0000 000000
2018-03-28 09:42:51,0.14,11.00,0.00,22.69,25.91,29.00,13.95,51.67,1008.34,2028.99,1051.40,1442.96,1613.07,600.23,592.14,59.95,0000 0000 0000 0000 000000
2018-03-28 09:47:52,0.17,11.01,0.00,22.69,25.94,29.02,13.95,51.69,1008.33,2028.98,1050.75,1442.13,1612.45,600.29,591.99,60.00,0000 0000 0000 0000 000000
2018-03-28 09:52:53,0.08,11.02,0.00,22.69,25.97,29.05,13.88,51.50,1008.33,2028.91,1050.03,1441.83,1611.90,599.98,591.78,60.05,0000 0000 0000 0000 000000
2018-03-28 09:57:55,0.11,11.03,0.00,22.72,26.01,29.09,13.89,51.50,1008.36,2028.50,1049.34,1441.06,1611.08,600.01,591.74,60.10,0000 0000 0000 0000 000000
2018-03-28 10:02:56,0.03,1.84,0.00,22.72,26.06,29.11,12.11,42.73,1008.36,2033.22,3184.46,2874.72,3301.71,529.69,522.79,0.00,0000 0000 0000 0000 000000
2018-03-28 10:07:57,0.03,0.00,0.00,22.73,26.08,29.14,13.92,48.07,1008.44,2033.97,3507.29,3092.90,3559.86,600.20,591.97,0.05,0000 0000 0000 0000 000000
2018-03-28 10:12:58,0.05,0.01,0.00,22.75,26.11,29.17,13.88,48.14,1008.34,2033.84,3503.81,3090.75,3557.20,600.26,591.97,0.10,0000 0000 0000 0000 000000
2018-03-28 10:17:59,0.06,0.01,0.00,22.77,26.13,29.21,13.91,48.02,1008.40,2033.29,3500.60,3088.68,3554.62,600.31,591.96,0.15,0000 0000 0000 0000 000000
2018-03-28 10:23:01,0.09,0.02,0.00,22.79,26.16,29.24,13.89,47.92,1008.39,2033.08,3497.49,3086.65,3552.09,600.24,591.78,0.20,0000 0000 0000 0000 000000
2018-03-28 10:28:02,0.11,0.02,0.00,22.83,26.18,29.26,13.86,47.77,1008.39,2033.02,3494.56,3084.70,3549.63,599.85,591.26,0.25,0000 0000 0000 0000 000000
2018-03-28 10:33:04,0.12,0.03,0.00,22.83,26.21,29.29,13.82,47.69,1008.36,2033.00,3491.77,3082.83,3547.33,600.19,591.72,0.30,0000 0000 0000 0000 000000
2018-03-28 10:38:05,0.13,0.04,0.00,22.84,26.24,29.32,13.82,47.66,1008.33,2033.00,3488.92,3080.88,3544.98,600.27,591.69,0.35,0000 0000 0000 0000 000000
2018-03-28 10:43:06,0.11,0.04,0.00,22.85,26.26,29.34,13.81,47.61,1008.32,2032.99,3486.18,3079.06,3542.70,599.84,591.25,0.40,0000 0000 0000 0000 000000
2018-03-28 10:48:07,0.11,0.05,0.00,22.88,26.29,29.36,13.86,47.63,1008.32,2032.97,3483.51,3077.28,3540.47,599.80,591.21,0.45,0000 0000 0000 0000 000000
2018-03-28 10:53:09,0.11,0.05,0.00,22.89,26.31,29.39,13.83,47.67,1008.32,2032.94,3480.90,3075.49,3538.35,600.03,591.41,0.50,0000 0000 0000 0000 000000
2018-03-28 10:58:10,0.08,0.06,0.00,22.90,26.33,29.41,13.85,47.69,1008.32,2032.75,3478.36,3073.80,3536.31,600.04,591.65,0.55,0000 0000 0000 0000 000000
2018-03-28 11:03:12,0.07,0.06,0.00,22.91,26.36,29.44,13.82,47.64,1008.33,2032.27,3475.78,3072.07,3534.20,600.23,591.62,0.60,0000 0000 0000 0000 000000
2018-03-28 11:08:13,0.10,0.07,0.00,22.92,26.38,29.48,13.82,47.61,1008.36,2032.09,3473.23,3070.48,3532.11,599.97,591.26,0.66,0000 0000 0000 0000 000000
2018-03-28 11:13:14,0.10,0.07,0.00,22.93,26.40,29.49,13.89,47.54,1008.46,2032.03,3470.84,3068.79,3530.07,599.97,591.36,0.71,0000 0000 0000 0000 000000
2018-03-28 11:18:16,0.10,0.08,0.00,22.95,26.42,29.55,13.86,47.48,1008.59,2032.00,3468.39,3067.21,3528.11,600.11,591.48,0.76,0000 0000 0000 0000 000000
2018-03-28 11:23:17,0.11,0.08,0.00,22.95,26.45,29.58,13.86,47.41,1008.46,2032.00,3466.00,3065.59,3526.22,599.97,591.25,0.81,0000 0000 0000 0000 000000
2018-03-28 11:28:18,0.10,0.09,0.00,22.97,26.46,29.57,13.92,47.45,1008.33,2032.00,3463.73,3063.96,3524.33,600.39,591.51,0.86,0000 0000 0000 0000 000000
2018-03-28 11:33:19,0.10,0.09,0.00,23.02,26.48,29.61,13.86,47.36,1008.34,2031.99,3461.33,3062.37,3522.28,600.25,591.31,0.91,0000 0000 0000 0000 000000
2018-03-28 11:38:20,0.11,0.10,0.00,23.04,26.50,29.62,13.84,47.33,1008.45,2031.98,3459.04,3060.71,3520.37,600.15,591.31,0.96,0000 0000 0000 0000 000000
2018-03-28 11:43:22,0.10,0.10,0.00,23.04,26.52,29.64,13.94,47.33,1008.58,2031.98,3456.61,3059.12,3518.59,600.43,591.73,1.01,0000 0000 0000 0000 000000
2018-03-28 11:48:23,0.09,0.11,0.00,23.07,26.54,29.66,13.86,47.41,1008.38,2031.96,3454.38,3057.55,3516.80,600.13,591.24,1.06,0000 0000 0000 0000 000000
2018-03-28 11:53:24,0.10,0.11,0.00,23.07,26.56,29.67,13.88,47.45,1008.32,2031.94,3452.09,3056.02,3514.95,600.21,591.20,1.11,0000 0000 0000 0000 000000
2018-03-28 11:58:25,0.10,0.12,0.00,23.06,26.57,29.69,13.88,47.63,1008.29,2031.91,3449.77,3054.44,3513.03,599.81,590.92,1.16,0000 0000 0000 0000 000000
2018-03-28 12:03:27,0.05,0.12,0.00,23.10,26.59,29.71,13.88,47.55,1008.30,2031.55,3447.53,3052.80,3511.13,599.95,590.92,1.21,0000 0000 0000 0000 000000
2018-03-28 12:08:28,0.07,0.13,0.00,23.12,26.61,29.70,13.79,47.61,1008.30,2031.16,3445.28,3051.29,3509.22,600.00,590.93,1.26,0000 0000 0000 0000 000000
2018-03-28 12:13:29,0.10,0.13,0.00,23.13,26.62,29.75,13.87,47.60,1008.03,2031.09,3443.16,3049.80,3507.54,600.31,591.10,1.31,0000 0000 0000 0000 000000
2018-03-28 12:18:30,0.09,0.14,0.00,23.14,26.65,29.73,13.88,47.86,1007.85,2031.04,3440.96,3048.34,3505.63,600.23,590.82,1.36,0000 0000 0000 0000 000000
2018-03-28 12:23:32,0.10,0.14,0.00,23.13,26.66,29.76,13.79,47.90,1007.85,2031.02,3438.71,3046.72,3503.73,600.18,590.87,1.41,0000 0000 0000 0000 000000
2018-03-28 12:28:33,0.09,0.15,0.00,23.13,26.67,29.76,13.78,47.83,1007.84,2031.00,3436.47,3045.17,3501.78,599.80,590.43,1.46,0000 0000 0000 0000 000000
2018-03-28 12:33:35,0.10,0.15,0.00,23.10,26.69,29.82,13.83,48.09,1007.83,2031.00,3434.33,3043.67,3499.93,599.89,590.67,1.51,0000 0000 0000 0000 000000
2018-03-28 12:38:36,0.08,0.16,0.00,23.07,26.70,29.78,13.81,48.10,1007.86,2031.00,3432.31,3042.32,3498.26,600.36,591.11,1.56,0000 0000 0000 0000 000000
2018-03-28 12:43:37,0.08,0.16,0.00,23.07,26.70,29.78,13.85,48.02,1008.23,2031.00,3430.48,3041.04,3496.64,600.10,591.01,1.61,0000 0000 0000 0000 000000
2018-03-28 12:48:38,0.10,0.16,0.00,23.04,26.71,29.75,13.87,47.91,1008.31,2030.99,3428.50,3039.73,3494.99,599.86,590.98,1.66,0000 0000 0000 0000 000000